Regional Weather Roundup
Issued by NWS Charleston, SC

Current Version | Previous Version | Graphics & Text | Print | Product List | Glossary On
Versions: 1 2 3 4 5 6 7 8 9 10 11 12 13 14 15 16 17 18 19 20 21 22 23 24 25 26 27 28 29 30 31 32 33 34 35 36 37 38 39 40 41 42 43 44 45 46 47 48 49 50
000
ASUS42 KCHS 120027
RWRCHS

REGIONAL WEATHER ROUNDUP
NATIONAL WEATHER SERVICE CHARLESTON SC
700 PM EST THU FEB 11 2016

NOTE: "FAIR" INDICATES FEW OR NO CLOUDS BELOW 12,000 FEET WITH NO
SIGNIFICANT WEATHER AND/OR OBSTRUCTIONS TO VISIBILITY.

NOT ALL STATIONS ARE QUALITY CONTROLLED BY THE NATIONAL
WEATHER SERVICE. USE DATA WITH CAUTION...ESPECIALLY
DEWPOINT OBSERVATIONS.

SCZ027-030-031-034>040-042>050-120100-
...SOUTHEAST SOUTH CAROLINA...

CITY           SKY/WX    TMP DP  RH WIND       PRES   REMARKS
N CHARLESTON   CLEAR     44  30  57 S6        30.21R
6HR MIN TEMP:  44; 6HR MAX TEMP:  57;

WATERFRONT PRK   N/A     47  35  63 S5        30.05R
MOUNT PLEASANT FAIR      39  34  81 CALM      30.23R
JOHNS ISLAND   FAIR      43  34  70 CALM      30.23R
PINOPOLIS        N/A     46  30  53 VRB2      30.12R
MONCKS CORNER  FAIR      41  28  60 CALM      30.22R
SUMMERVILLE    FAIR      45  32  61 SE5       30.23R
BEAUFORT MCAS  CLEAR     45  34  65 CALM      30.21R
6HR MIN TEMP:  45; 6HR MAX TEMP:  55;

BEAUFORT ARPT  FAIR      43  36  75 CALM      30.21R
HILTON HEAD IS NOT AVBL
WALTERBORO     CLEAR     46  32  57 SE5       30.22R
ALLENDALE      FAIR      46  32  57 CALM      30.19R

...SOUTHERN MIDLANDS AND PEE DEE...

CITY           SKY/WX    TMP DP  RH WIND       PRES   REMARKS
GEORGETOWN     FAIR      41  32  70 S5        30.24R
KINGSTREE      FAIR      36  32  87 CALM      30.22R
ORANGEBURG     CLEAR     45  27  49 N3        30.20R
6HR MIN TEMP:  45; 6HR MAX TEMP:  55;

BARNWELL       FAIR      45  32  61 CALM      30.20R
AIKEN          FAIR      41  28  60 CALM      30.22R
MANNING        FAIR      37  30  75 CALM      30.22R
COLUMBIA       PTCLDY    46  26  45 CALM      30.19R
6HR MIN TEMP:  46; 6HR MAX TEMP:  55;

SUMTER         CLEAR     41  26  54 N2        30.18R
6HR MIN TEMP:  40; 6HR MAX TEMP:  53;

FLORENCE       CLEAR     40  26  57 E3        30.21R
6HR MIN TEMP:  40; 6HR MAX TEMP:  48;

MYRTLE BEACH   CLEAR     43  25  49 E6        30.25
N MYRTLE BEACH CLEAR     41  31  67 SW3       30.23R
6HR MIN TEMP:  40; 6HR MAX TEMP:  50;


$$

GAZ063-065-086>088-099>101-113>116-118-119-134>141-150-120100-
...SOUTHEAST GEORGIA...

CITY           SKY/WX    TMP DP  RH WIND       PRES   REMARKS
SAVANNAH ARPT  PTCLDY    49  37  63 E7        30.19R
6HR MIN TEMP:  49; 6HR MAX TEMP:  61;

HUNTER AAF     CLEAR     49  41  75 E6        30.16R
6HR MIN TEMP:  48; 6HR MAX TEMP:  57;

FORT STEWART   CLEAR     51  41  69 CALM      30.15R
6HR MIN TEMP:  51; 6HR MAX TEMP:  65;

STATESBORO     CLEAR     48  36  64 E5        30.18R
SYLVANIA       CLEAR     48  38  68 CALM      30.19R
CLAXTON        FAIR      50  45  81 CALM      30.16R

...CSRA...CENTRAL AND FAR SOUTHEAST GEORGIA...

CITY           SKY/WX    TMP DP  RH WIND       PRES   REMARKS
THOMSON        CLEAR     45  34  65 CALM      30.22S
AUGUSTA-BUSH   CLEAR     45  29  53 CALM      30.18R
6HR MIN TEMP:  45; 6HR MAX TEMP:  57;

AUGUSTA-DANIEL CLEAR     51  26  37 CALM      30.18R
SWAINSBORO     FAIR      50  36  57 NE3       30.17R
VIDALIA        CLEAR     54  36  50 NE6       30.16R
EASTMAN        MOCLDY    51  42  71 CALM      30.17R
HAZLEHURST     FAIR      54  45  71 CALM      30.14R
ALMA           CLEAR     52  43  71 CALM      30.15R
6HR MIN TEMP:  52; 6HR MAX TEMP:  66;

WAYCROSS       CLEAR     63  50  63 SW10      30.17R
JESUP          FAIR      55  46  71 CALM      30.16S
BAXLEY         FAIR      54  45  71 CALM      30.15R
BRUNSWICK      CLEAR     54  46  76 S3        30.18R
SAINT SIMONS   CLEAR     53  48  83 S9        30.17R
6HR MIN TEMP:  53; 6HR MAX TEMP:  60;


$$

SCZ027-028-034-036>038-045-046-048>050-GAZ119-141-120100-
...LAKE AND SUPPLEMENTAL COASTAL OBSERVATIONS...

STATION/POSITION TIME  TEMP    WIND        PRES    WAVE   SWELL
                       AIR SEA DIR/SP/G            HT/PER HT/PER/DIR
                 (UTC) (F)     (DEG/KT/KT) (MB)    (FT/S) (FT/S/D)
WINYAH BAY       2345   43     220/  3     1022.0R
LAKE MURRAY      2300   51      CALM  /  3 1021.0R
ACE BASIN NERRS  2300   46     160/  2     1022.0
FORT PULASKI     0000   48 49   80/  3/  4 1022.6R
SAPELO ISLAND    0000   52     160/  6     1021.0S

$$

ANZ835-935-AMZ111-154-330-350-352-354-370-450-454-472-120100-
...C-MAN AND BUOY OBSERVATIONS...

STATION/POSITION TIME  TEMP    WIND        PRES    WAVE   SWELL
                       AIR SEA DIR/SP/G            HT/PER HT/PER/DIR
                 (UTC) (F)     (DEG/KT/KT) (MB)    (FT/S) (FT/S/D)
BUOY 41004       2350   51 64  230/  6/ 10 1023.1R   2/ 6   2/ 6
BUOY 41008       2350   55 53  180/ 12/ 14 1021.8R   2/ 4
FOLLY BEACH CMAN 0000   49     190/  8/  9 1023.3R
CAPERS NEARSHORE 2308   48     200/ 10/ 12 1022.2R
FRIPP NEARSHORE  2300   50     140/  6/  8 1021.8R


STATION/POSITION TIME  TEMP    WIND        PRES    WAVE   SWELL
                       AIR SEA DIR/SP/G            HT/PER HT/PER/DIR
                 (UTC) (F)     (DEG/KT/KT) (MB)    (FT/S) (FT/S/D)
5E ST. MARYS GA  2321      56                N/A     3/ 4   2/ 90/13
FRYING PAN BUOY  0000   46 56  300/  6/ 10 1024.0R
BUOY 41025       2350   40 70  300/ 14/ 17 1023.7R   4/ 4   2/140/ 8
CAPE LOOKOUT NC  NOT AVBL
BUOY 41002       2350   54 68  300/ 17/ 21   N/A     8/ 8   5/270/ 8
BUOY 41010       2320   61 72              1025.2R
ST AUGUSTINE FL  0000   57 57  170/ 18/ 19 1023.6R


$$



USA.gov is the U.S. government's official web portal to all federal, state and local government web resources and services.